Regional Weather Roundup
Issued by NWS

Home | Current Version | Previous Version | Graphics & Text | Print | Product List | Glossary On
Versions: 1 2 3 4 5 6 7 8 9 10 11 12 13 14 15 16 17 18 19 20 21 22 23 24 25 26 27 28 29 30 31 32 33 34 35 36 37 38 39 40 41 42 43 44 45 46 47 48 49 50
158
ASUS43 KOAX 021210
RWRNE

WEATHER ROUNDUP FOR NEBRASKA
NATIONAL WEATHER SERVICE OMAHA NE
700 AM CDT MON MAY 02 2016

NOTES: SATELLITE DATA IS BEING USED TO AUGMENT CLOUD COVER ABOVE
       12000 FEET.
       "FAIR" INDICATES FEW OR NO CLOUDS BELOW 12,000 FEET WITH NO
       SIGNIFICANT WEATHER AND/OR OBSTRUCTIONS TO VISIBILITY.

  * THESE STATIONS DO NOT REPORT WEATHER SUCH AS RAIN...SNOW OR FOG.

NEZ001>004-019>022-054>056-021300-
NEBRASKA PANHANDLE

CITY           SKY/WX    TMP DP  RH WIND       PRES   REMARKS
SCOTTSBLUFF    CLEAR     31  27  85 NW8       30.22F WCI  23
6HR MIN TEMP:  30; 6HR MAX TEMP:  36;

ALLIANCE       CLEAR     22  20  92 W8        30.19F WCI  12
6HR MIN TEMP:  21; 6HR MAX TEMP:  29;

CHADRON        CLEAR     30  27  88 SW6       30.20F WCI  24
6HR MIN TEMP:  28; 6HR MAX TEMP:  34;

KIMBALL        CLEAR     27  23  85 W10       30.23S WCI  18
SIDNEY         CLEAR     28  23  81 W13       30.22S WCI  17
6HR MIN TEMP:  28; 6HR MAX TEMP:  32;

$$

NEZ057>060-069>072-079>082-021300-
SOUTHWEST NEBRASKA

CITY           SKY/WX    TMP DP  RH WIND       PRES   REMARKS
NORTH PLATTE   CLEAR     26  25  96 NW3       30.20S
6HR MIN TEMP:  25; 6HR MAX TEMP:  35;

IMPERIAL       CLEAR     33  28  81 W7        30.22S WCI  27
6HR MIN TEMP:  33; 6HR MAX TEMP:  38;

LEXINGTON      CLEAR     32  31  94 NW5       30.20R WCI  28
MCCOOK         CLEAR     33  30  88 W3        30.21S
6HR MIN TEMP:  32; 6HR MAX TEMP:  40;

OGALLALA       CLEAR     30  27  88 W7        30.22S WCI  23
$$

NEZ005>010-023>029-035>040-094-021300-
NORTH CENTRAL NEBRASKA

CITY           SKY/WX    TMP DP  RH WIND       PRES   REMARKS
VALENTINE      CLEAR     31  28  89 SW9       30.17F WCI  23
6HR MIN TEMP:  27; 6HR MAX TEMP:  33;

AINSWORTH      CLEAR     34  31  88 W3        30.17S
BROKEN BOW     CLEAR     37  31  78 NW5       30.18S WCI  33
6HR MIN TEMP:  30; 6HR MAX TEMP:  37;

O`NEILL        CLEAR     37  33  85 W6        30.16S WCI  32
ORD            CLEAR     32  30  92 NW5       30.17R WCI  27
6HR MIN TEMP:  30; 6HR MAX TEMP:  37;

THEDFORD         N/A     29  28  96 SW3       30.19F
$$

NEZ041-046>049-061>064-073>077-083>087-021300-
SOUTH CENTRAL NEBRASKA

CITY           SKY/WX    TMP DP  RH WIND       PRES   REMARKS
GRAND ISLAND   CLEAR     36  33  89 W8        30.18R WCI  30
6HR MIN TEMP:  35; 6HR MAX TEMP:  46;

AURORA         MOCLDY    37  36  94 W5        30.17S WCI  34
HASTINGS       CLEAR     38  34  85 NW9       30.17S WCI  31
6HR MIN TEMP:  38; 6HR MAX TEMP:  45;

HEBRON         CLOUDY    46  43  88 NW7       30.16S
HOLDREGE       CLEAR     34  32  92 NW5       30.19S WCI  30
KEARNEY *      CLEAR     36  32  87 NW8       30.19S WCI  29
YORK           CLOUDY    43  39  87 NW7       30.16S
$$

NEZ011>018-030>034-042>045-021300-
NORTHEAST NEBRASKA

CITY           SKY/WX    TMP DP  RH WIND       PRES   REMARKS
NORFOLK        CLEAR     36  33  89 W6        30.16R WCI  31
6HR MIN TEMP:  34; 6HR MAX TEMP:  40;

ALBION         CLEAR     32  31  95 NW7       30.17S WCI  26
BLAIR          CLOUDY    45  39  79 N7        30.13R
COLUMBUS *     CLEAR     37  28  70 W7        30.17R WCI  32
FREMONT        PTCLDY    39  39 100 NW5       30.15R
TEKAMAH        PTCLDY    40  38  93 N6        30.14S
6HR MIN TEMP:  40; 6HR MAX TEMP:  48;

WAYNE          CLEAR     33  32  97 SW5       30.16S WCI  28
$$

NEZ050>053-065>068-078-088>093-021300-
SOUTHEAST NEBRASKA

CITY           SKY/WX    TMP DP  RH WIND       PRES   REMARKS
LINCOLN        CLOUDY    48  41  76 N6        30.16R
6HR MIN TEMP:  48; 6HR MAX TEMP:  49;

OMAHA EPPLEY   MOCLDY    45  42  89 N5        30.14R
6HR MIN TEMP:  43; 6HR MAX TEMP:  50;

BEATRICE       CLOUDY    46  44  90 N3        30.15R
FALLS CITY     CLOUDY    47  45  93 NW7       30.11S
6HR MIN TEMP:  46; 6HR MAX TEMP:  47;

NEBRASKA CITY  CLOUDY    47  45  91 N7        30.13R
PLATTSMOUTH    CLOUDY    47  42  85 NW7       30.13S
$$

NEZ044-045-051>053-067-021300-
OMAHA AREA

CITY           SKY/WX    TMP DP  RH WIND       PRES   REMARKS
OMAHA EPPLEY   MOCLDY    45  42  89 N5        30.14R
6HR MIN TEMP:  43; 6HR MAX TEMP:  50;

BLAIR          CLOUDY    45  39  79 N7        30.13R
FREMONT        PTCLDY    39  39 100 NW5       30.15R
MILLARD        CLOUDY    46  40  82 NW3       30.14S
OFFUTT AFB     CLOUDY    45  44  97 CALM      30.13R
PLATTSMOUTH    CLOUDY    47  42  85 NW7       30.13S
WAHOO          PTSUNNY   44  40  83 NW8       30.14S
$$




USA.gov is the U.S. government's official web portal to all federal, state and local government web resources and services.